User: anonymous   Login
Location: Unspecified
(0.0000°N, 0.0000°E)
Time: 07:19:27
(UTC+00:00)
Language:

Tsikada - Orbit

View from above orbital plane
View from above orbital plane
View from above satellite
View from above satellite

Ground track
Ground track

The orbit is defined by the following mean orbital elements,

1 23463U          26106.42081192 +.00000000 +00000-0 +77087-5 0 00007
2 23463  82.9269  61.5960 0037913 312.7052 165.2923 13.72729787    07
Epoch (UTC): 16 April 2026 10:05:58
Eccentricity: 0.0037913
inclination: 82.9269°
perigee height: 962 km
apogee height: 1018 km
right ascension of ascending node: 61.5960°
argument of perigee: 312.7052°
revolutions per day: 13.72729787
mean anomaly at epoch: 165.2923°

The dashed part of the orbit path shows where the satellite is in the earth's shadow,  

DLR